Time,TemperatureF,DewpointF,PressureIn,WindDirection,WindDirectionDegrees,WindSpeedMPH,WindSpeedGustMPH,Humidity,HourlyPrecipIn,Conditions,Clouds,dailyrainin,SoftwareType,DateUTC
2013-05-22 00:00:00,48.4,45.9,29.82,ESE,112,1.0,5.0,91,0.00,,,0.00,WeatherCatV1.10B1784,2013-05-22 07:00:00,
2013-05-22 00:05:00,48.2,46.0,29.83,ESE,112,1.0,5.0,92,0.00,,,0.00,WeatherCatV1.10B1784,2013-05-22 07:05:00,
2013-05-22 00:10:00,48.2,46.0,29.83,ESE,112,1.0,5.0,92,0.00,,,0.00,WeatherCatV1.10B1784,2013-05-22 07:10:00,
2013-05-22 00:15:00,48.2,46.0,29.83,ESE,112,1.0,5.0,92,0.00,,,0.00,WeatherCatV1.10B1784,2013-05-22 07:15:00,
2013-05-22 00:20:00,48.2,46.0,29.83,ESE,112,1.0,5.0,92,0.00,,,0.00,WeatherCatV1.10B1784,2013-05-22 07:20:00,
2013-05-22 00:25:00,48.2,46.0,29.83,ESE,112,1.0,5.0,92,0.00,,,0.00,WeatherCatV1.10B1784,2013-05-22 07:25:00,
2013-05-22 00:30:00,48.2,46.0,29.83,ESE,112,1.0,5.0,92,0.00,,,0.00,WeatherCatV1.10B1784,2013-05-22 07:30:00,
2013-05-22 00:35:00,48.4,46.2,29.83,ESE,112,1.0,5.0,92,0.00,,,0.00,WeatherCatV1.10B1784,2013-05-22 07:35:00,
2013-05-22 00:40:00,48.4,46.2,29.83,ESE,112,1.0,5.0,92,0.00,,,0.00,WeatherCatV1.10B1784,2013-05-22 07:40:00,
2013-05-22 00:45:00,48.4,46.2,29.83,ESE,112,1.0,5.0,92,0.00,,,0.00,WeatherCatV1.10B1784,2013-05-22 07:45:00,
2013-05-22 00:50:00,48.4,46.2,29.83,ESE,112,1.0,5.0,92,0.00,,,0.00,WeatherCatV1.10B1784,2013-05-22 07:50:00,
2013-05-22 00:55:00,48.4,46.2,29.83,ESE,112,1.0,5.0,92,0.00,,,0.00,WeatherCatV1.10B1784,2013-05-22 07:55:00,
2013-05-22 01:00:00,48.4,46.2,29.83,ESE,112,1.0,5.0,92,0.00,,,0.00,WeatherCatV1.10B1784,2013-05-22 08:00:00,
2013-05-22 01:05:00,48.3,46.4,29.83,ESE,112,1.0,5.0,93,0.00,,,0.00,WeatherCatV1.10B1784,2013-05-22 08:05:00,
2013-05-22 01:10:00,48.3,46.4,29.83,ESE,112,1.0,5.0,93,0.00,,,0.00,WeatherCatV1.10B1784,2013-05-22 08:10:00,
2013-05-22 01:15:00,48.3,46.4,29.83,ESE,112,1.0,5.0,93,0.00,,,0.00,WeatherCatV1.10B1784,2013-05-22 08:15:00,
2013-05-22 01:20:00,48.3,46.4,29.83,ESE,112,1.0,5.0,93,0.00,,,0.00,WeatherCatV1.10B1784,2013-05-22 08:20:00,
2013-05-22 01:25:00,48.3,46.4,29.83,ESE,112,1.0,5.0,93,0.00,,,0.00,WeatherCatV1.10B1784,2013-05-22 08:25:00,
2013-05-22 01:30:00,48.3,46.4,29.83,ESE,112,1.0,5.0,93,0.00,,,0.00,WeatherCatV1.10B1784,2013-05-22 08:30:00,
2013-05-22 01:35:00,48.2,46.0,29.84,ESE,112,1.0,5.0,92,0.00,,,0.00,WeatherCatV1.10B1784,2013-05-22 08:35:00,
2013-05-22 01:40:00,48.2,46.0,29.84,ESE,112,1.0,5.0,92,0.00,,,0.00,WeatherCatV1.10B1784,2013-05-22 08:40:00,
2013-05-22 01:45:00,48.2,46.0,29.84,ESE,112,1.0,5.0,92,0.00,,,0.00,WeatherCatV1.10B1784,2013-05-22 08:45:00,
2013-05-22 01:50:00,48.2,46.0,29.84,ESE,112,1.0,5.0,92,0.00,,,0.00,WeatherCatV1.10B1784,2013-05-22 08:50:00,
2013-05-22 01:55:00,48.2,46.0,29.84,ESE,112,1.0,5.0,92,0.00,,,0.00,WeatherCatV1.10B1784,2013-05-22 08:55:00,
2013-05-22 02:00:00,48.2,46.0,29.84,ESE,112,1.0,5.0,92,0.00,,,0.00,WeatherCatV1.10B1784,2013-05-22 09:00:00,
2013-05-22 02:05:00,48.3,46.1,29.84,SE,135,1.0,4.0,92,0.00,,,0.00,WeatherCatV1.10B1784,2013-05-22 09:05:00,
2013-05-22 02:10:00,48.3,46.1,29.84,SE,135,1.0,4.0,92,0.00,,,0.00,WeatherCatV1.10B1784,2013-05-22 09:10:00,
2013-05-22 02:15:00,48.3,46.1,29.84,SE,135,1.0,4.0,92,0.00,,,0.00,WeatherCatV1.10B1784,2013-05-22 09:15:00,
2013-05-22 02:20:00,48.3,46.1,29.84,SE,135,1.0,4.0,92,0.00,,,0.00,WeatherCatV1.10B1784,2013-05-22 09:20:00,
2013-05-22 02:25:00,48.3,46.1,29.84,SE,135,1.0,4.0,92,0.00,,,0.00,WeatherCatV1.10B1784,2013-05-22 09:25:00,
2013-05-22 02:30:00,48.3,46.1,29.84,SE,135,1.0,4.0,92,0.00,,,0.00,WeatherCatV1.10B1784,2013-05-22 09:30:00,
2013-05-22 02:35:00,48.2,46.0,29.85,ESE,112,1.0,6.0,92,0.00,,,0.00,WeatherCatV1.10B1784,2013-05-22 09:35:00,
2013-05-22 02:40:00,48.2,46.0,29.85,ESE,112,1.0,6.0,92,0.00,,,0.00,WeatherCatV1.10B1784,2013-05-22 09:40:00,
2013-05-22 02:45:00,48.2,46.0,29.85,ESE,112,1.0,6.0,92,0.00,,,0.00,WeatherCatV1.10B1784,2013-05-22 09:45:00,
2013-05-22 02:50:00,48.2,46.0,29.85,ESE,112,1.0,6.0,92,0.00,,,0.00,WeatherCatV1.10B1784,2013-05-22 09:50:00,
2013-05-22 02:55:00,48.2,46.0,29.85,ESE,112,1.0,6.0,92,0.00,,,0.00,WeatherCatV1.10B1784,2013-05-22 09:55:00,
2013-05-22 03:00:00,48.2,46.0,29.85,ESE,112,1.0,6.0,92,0.00,,,0.00,WeatherCatV1.10B1784,2013-05-22 10:00:00,
2013-05-22 03:05:00,48.1,45.9,29.85,ESE,112,1.0,3.0,92,0.00,,,0.00,WeatherCatV1.10B1784,2013-05-22 10:05:00,
2013-05-22 03:10:00,48.1,45.9,29.85,ESE,112,1.0,3.0,92,0.00,,,0.00,WeatherCatV1.10B1784,2013-05-22 10:10:00,
2013-05-22 03:15:00,48.1,45.9,29.85,ESE,112,1.0,3.0,92,0.00,,,0.00,WeatherCatV1.10B1784,2013-05-22 10:15:00,
2013-05-22 03:20:00,48.1,45.9,29.85,ESE,112,1.0,3.0,92,0.00,,,0.00,WeatherCatV1.10B1784,2013-05-22 10:20:00,
2013-05-22 03:25:00,48.1,45.9,29.85,ESE,112,1.0,3.0,92,0.00,,,0.00,WeatherCatV1.10B1784,2013-05-22 10:25:00,
2013-05-22 03:30:00,48.1,45.9,29.85,ESE,112,1.0,3.0,92,0.00,,,0.00,WeatherCatV1.10B1784,2013-05-22 10:30:00,
2013-05-22 03:35:00,48.3,46.1,29.85,ESE,112,1.0,4.0,92,0.00,,,0.00,WeatherCatV1.10B1784,2013-05-22 10:35:00,
2013-05-22 03:40:00,48.3,46.1,29.85,ESE,112,1.0,4.0,92,0.00,,,0.00,WeatherCatV1.10B1784,2013-05-22 10:40:00,
2013-05-22 03:45:00,48.3,46.1,29.85,ESE,112,1.0,4.0,92,0.00,,,0.00,WeatherCatV1.10B1784,2013-05-22 10:45:00,
2013-05-22 03:50:00,48.3,46.1,29.85,ESE,112,1.0,4.0,92,0.00,,,0.00,WeatherCatV1.10B1784,2013-05-22 10:50:00,
2013-05-22 03:55:00,48.3,46.1,29.85,ESE,112,1.0,4.0,92,0.00,,,0.00,WeatherCatV1.10B1784,2013-05-22 10:55:00,
2013-05-22 04:00:00,48.3,46.1,29.85,ESE,112,1.0,4.0,92,0.00,,,0.00,WeatherCatV1.10B1784,2013-05-22 11:00:00,
2013-05-22 04:05:00,48.4,45.9,29.85,ESE,112,2.0,6.0,91,0.00,,,0.00,WeatherCatV1.10B1784,2013-05-22 11:05:00,
2013-05-22 04:10:00,48.4,45.9,29.85,ESE,112,2.0,6.0,91,0.00,,,0.00,WeatherCatV1.10B1784,2013-05-22 11:10:00,
2013-05-22 04:15:00,48.4,45.9,29.85,ESE,112,2.0,6.0,91,0.00,,,0.00,WeatherCatV1.10B1784,2013-05-22 11:15:00,
2013-05-22 04:20:00,48.4,45.9,29.85,ESE,112,2.0,6.0,91,0.00,,,0.00,WeatherCatV1.10B1784,2013-05-22 11:20:00,
2013-05-22 04:25:00,48.4,45.9,29.85,ESE,112,2.0,6.0,91,0.00,,,0.00,WeatherCatV1.10B1784,2013-05-22 11:25:00,
2013-05-22 04:30:00,48.4,45.9,29.85,ESE,112,2.0,6.0,91,0.00,,,0.00,WeatherCatV1.10B1784,2013-05-22 11:30:00,
2013-05-22 04:35:00,48.0,45.8,29.86,ESE,112,1.0,4.0,92,0.00,,,0.00,WeatherCatV1.10B1784,2013-05-22 11:35:00,
2013-05-22 04:40:00,48.0,45.8,29.86,ESE,112,1.0,4.0,92,0.00,,,0.00,WeatherCatV1.10B1784,2013-05-22 11:40:00,
2013-05-22 04:45:00,48.0,45.8,29.86,ESE,112,1.0,4.0,92,0.00,,,0.00,WeatherCatV1.10B1784,2013-05-22 11:45:00,
2013-05-22 04:50:00,48.0,45.8,29.86,ESE,112,1.0,4.0,92,0.00,,,0.00,WeatherCatV1.10B1784,2013-05-22 11:50:00,
2013-05-22 04:55:00,48.0,45.8,29.86,ESE,112,1.0,4.0,92,0.00,,,0.00,WeatherCatV1.10B1784,2013-05-22 11:55:00,
2013-05-22 05:00:00,48.0,45.8,29.86,ESE,112,1.0,4.0,92,0.00,,,0.00,WeatherCatV1.10B1784,2013-05-22 12:00:00,
2013-05-22 05:05:00,47.8,45.6,29.86,ESE,112,0.0,2.0,92,0.00,,,0.00,WeatherCatV1.10B1784,2013-05-22 12:05:00,
2013-05-22 05:10:00,47.8,45.6,29.86,ESE,112,0.0,2.0,92,0.00,,,0.00,WeatherCatV1.10B1784,2013-05-22 12:10:00,
2013-05-22 05:15:00,47.8,45.6,29.86,ESE,112,0.0,2.0,92,0.00,,,0.00,WeatherCatV1.10B1784,2013-05-22 12:15:00,
2013-05-22 05:20:00,47.8,45.6,29.86,ESE,112,0.0,2.0,92,0.00,,,0.00,WeatherCatV1.10B1784,2013-05-22 12:20:00,
2013-05-22 05:25:00,47.8,45.6,29.86,ESE,112,0.0,2.0,92,0.00,,,0.00,WeatherCatV1.10B1784,2013-05-22 12:25:00,
2013-05-22 05:30:00,47.8,45.6,29.86,ESE,112,0.0,2.0,92,0.00,,,0.00,WeatherCatV1.10B1784,2013-05-22 12:30:00,
2013-05-22 05:35:00,47.7,45.5,29.86,ESE,112,0.0,3.0,92,0.00,,,0.00,WeatherCatV1.10B1784,2013-05-22 12:35:00,
2013-05-22 05:40:00,47.7,45.5,29.86,ESE,112,0.0,3.0,92,0.00,,,0.00,WeatherCatV1.10B1784,2013-05-22 12:40:00,
2013-05-22 05:45:00,47.7,45.5,29.86,ESE,112,0.0,3.0,92,0.00,,,0.00,WeatherCatV1.10B1784,2013-05-22 12:45:00,
2013-05-22 05:50:00,47.7,45.5,29.86,ESE,112,0.0,3.0,92,0.00,,,0.00,WeatherCatV1.10B1784,2013-05-22 12:50:00,
2013-05-22 05:55:00,47.7,45.5,29.86,ESE,112,0.0,3.0,92,0.00,,,0.00,WeatherCatV1.10B1784,2013-05-22 12:55:00,
2013-05-22 06:00:00,47.7,45.5,29.86,ESE,112,0.0,3.0,92,0.00,,,0.00,WeatherCatV1.10B1784,2013-05-22 13:00:00,
2013-05-22 06:05:00,47.7,45.2,29.86,ESE,112,0.0,1.0,91,0.00,,,0.00,WeatherCatV1.10B1784,2013-05-22 13:05:00,
2013-05-22 06:10:00,47.7,45.2,29.86,ESE,112,0.0,1.0,91,0.00,,,0.00,WeatherCatV1.10B1784,2013-05-22 13:10:00,
2013-05-22 06:15:00,47.7,45.2,29.86,ESE,112,0.0,1.0,91,0.00,,,0.00,WeatherCatV1.10B1784,2013-05-22 13:15:00,
2013-05-22 06:20:00,47.7,45.2,29.86,ESE,112,0.0,1.0,91,0.00,,,0.00,WeatherCatV1.10B1784,2013-05-22 13:20:00,
2013-05-22 06:25:00,47.7,45.2,29.86,ESE,112,0.0,1.0,91,0.00,,,0.00,WeatherCatV1.10B1784,2013-05-22 13:25:00,
2013-05-22 06:30:00,47.7,45.2,29.86,ESE,112,0.0,1.0,91,0.00,,,0.00,WeatherCatV1.10B1784,2013-05-22 13:30:00,
2013-05-22 06:35:00,47.7,45.2,29.86,ESE,112,0.0,1.0,91,0.00,,,0.00,WeatherCatV1.10B1784,2013-05-22 13:35:00,
2013-05-22 06:40:00,48.1,45.9,29.86,SW,225,0.0,1.0,92,0.00,,,0.00,WeatherCatV1.10B1784,2013-05-22 13:40:00,
2013-05-22 06:45:00,48.1,45.9,29.86,SW,225,0.0,1.0,92,0.00,,,0.00,WeatherCatV1.10B1784,2013-05-22 13:45:00,
2013-05-22 06:50:00,48.1,45.9,29.86,SW,225,0.0,1.0,92,0.00,,,0.00,WeatherCatV1.10B1784,2013-05-22 13:50:00,
2013-05-22 06:55:00,48.1,45.9,29.86,SW,225,0.0,1.0,92,0.00,,,0.00,WeatherCatV1.10B1784,2013-05-22 13:55:00,
2013-05-22 07:00:00,48.1,45.9,29.86,SW,225,0.0,1.0,92,0.00,,,0.00,WeatherCatV1.10B1784,2013-05-22 14:00:00,
2013-05-22 07:05:00,48.1,45.9,29.86,SW,225,0.0,1.0,92,0.00,,,0.00,WeatherCatV1.10B1784,2013-05-22 14:05:00,
2013-05-22 07:10:00,48.2,46.0,29.86,SSW,202,0.0,1.0,92,0.00,,,0.00,WeatherCatV1.10B1784,2013-05-22 14:10:00,
2013-05-22 07:15:00,48.2,46.0,29.86,SSW,202,0.0,1.0,92,0.00,,,0.00,WeatherCatV1.10B1784,2013-05-22 14:15:00,
2013-05-22 07:20:00,48.2,46.0,29.86,SSW,202,0.0,1.0,92,0.00,,,0.00,WeatherCatV1.10B1784,2013-05-22 14:20:00,
2013-05-22 07:25:00,48.2,46.0,29.86,SSW,202,0.0,1.0,92,0.00,,,0.00,WeatherCatV1.10B1784,2013-05-22 14:25:00,
2013-05-22 07:30:00,48.2,46.0,29.86,SSW,202,0.0,1.0,92,0.00,,,0.00,WeatherCatV1.10B1784,2013-05-22 14:30:00,
2013-05-22 07:35:00,48.2,46.0,29.86,SSW,202,0.0,1.0,92,0.00,,,0.00,WeatherCatV1.10B1784,2013-05-22 14:35:00,
2013-05-22 07:40:00,49.1,46.9,29.85,SSW,202,0.0,0.0,92,0.00,,,0.00,WeatherCatV1.10B1784,2013-05-22 14:40:00,
2013-05-22 07:45:00,49.1,46.9,29.85,SSW,202,0.0,0.0,92,0.00,,,0.00,WeatherCatV1.10B1784,2013-05-22 14:45:00,
2013-05-22 07:50:00,49.1,46.9,29.85,SSW,202,0.0,0.0,92,0.00,,,0.00,WeatherCatV1.10B1784,2013-05-22 14:50:00,
2013-05-22 07:55:00,49.1,46.9,29.85,SSW,202,0.0,0.0,92,0.00,,,0.00,WeatherCatV1.10B1784,2013-05-22 14:55:00,
2013-05-22 08:00:00,49.1,46.9,29.85,SSW,202,0.0,0.0,92,0.00,,,0.00,WeatherCatV1.10B1784,2013-05-22 15:00:00,
2013-05-22 08:05:00,49.1,46.9,29.85,SSW,202,0.0,0.0,92,0.00,,,0.00,WeatherCatV1.10B1784,2013-05-22 15:05:00,
2013-05-22 08:10:00,52.6,48.5,29.86,East,87,4.0,5.0,86,0.00,,,0.00,WeatherCatV1.10B1784,2013-05-22 15:10:00,
2013-05-22 08:15:00,53.2,49.1,29.86,East,93,3.0,5.0,86,0.00,,,0.00,WeatherCatV1.10B1784,2013-05-22 15:15:00,
2013-05-22 08:20:00,53.4,48.7,29.86,ESE,104,3.0,8.0,84,0.00,,,0.00,WeatherCatV1.10B1784,2013-05-22 15:20:00,
2013-05-22 08:25:00,53.3,48.6,29.86,ESE,109,4.0,6.0,84,0.00,,,0.00,WeatherCatV1.10B1784,2013-05-22 15:25:00,
2013-05-22 08:30:00,53.4,48.4,29.86,ESE,107,4.0,9.0,83,0.00,,,0.00,WeatherCatV1.10B1784,2013-05-22 15:30:00,
2013-05-22 08:35:00,52.9,47.6,29.86,ESE,112,4.0,5.0,82,0.00,,,0.00,WeatherCatV1.10B1784,2013-05-22 15:35:00,
2013-05-22 08:40:00,52.2,47.5,29.86,ESE,117,4.0,7.0,84,0.00,,,0.00,WeatherCatV1.10B1784,2013-05-22 15:40:00,
2013-05-22 08:45:00,51.8,47.4,29.86,ESE,113,4.0,5.0,85,0.00,,,0.00,WeatherCatV1.10B1784,2013-05-22 15:45:00,
2013-05-22 08:50:00,51.8,47.7,29.86,ESE,117,3.0,3.0,86,0.00,,,0.00,WeatherCatV1.10B1784,2013-05-22 15:50:00,
2013-05-22 08:55:00,51.7,47.6,29.86,ESE,121,2.0,4.0,86,0.00,,,0.00,WeatherCatV1.10B1784,2013-05-22 15:55:00,
2013-05-22 09:00:00,51.7,47.3,29.86,ESE,115,2.0,5.0,85,0.00,,,0.00,WeatherCatV1.10B1784,2013-05-22 16:00:00,
2013-05-22 09:05:00,51.8,47.4,29.86,ESE,118,3.0,4.0,85,0.00,,,0.00,WeatherCatV1.10B1784,2013-05-22 16:05:00,
2013-05-22 09:10:00,52.2,48.1,29.86,ESE,119,2.0,2.0,86,0.00,,,0.00,WeatherCatV1.10B1784,2013-05-22 16:10:00,
2013-05-22 09:15:00,52.2,47.8,29.86,ESE,114,1.0,5.0,85,0.00,,,0.00,WeatherCatV1.10B1784,2013-05-22 16:15:00,
2013-05-22 09:20:00,52.3,47.6,29.86,ESE,112,2.0,6.0,84,0.00,,,0.00,WeatherCatV1.10B1784,2013-05-22 16:20:00,
2013-05-22 09:25:00,52.6,48.2,29.86,SE,135,2.0,3.0,85,0.00,,,0.00,WeatherCatV1.10B1784,2013-05-22 16:25:00,
2013-05-22 09:30:00,52.8,48.1,29.86,SE,125,2.0,2.0,84,0.00,,,0.00,WeatherCatV1.10B1784,2013-05-22 16:30:00,
2013-05-22 09:35:00,52.8,47.8,29.86,East,84,2.0,7.0,83,0.00,,,0.00,WeatherCatV1.10B1784,2013-05-22 16:35:00,
2013-05-22 09:40:00,52.4,47.4,29.86,ENE,71,3.0,6.0,83,0.00,,,0.00,WeatherCatV1.10B1784,2013-05-22 16:40:00,
2013-05-22 09:45:00,52.1,47.4,29.86,ENE,76,3.0,8.0,84,0.00,,,0.00,WeatherCatV1.10B1784,2013-05-22 16:45:00,
2013-05-22 09:50:00,51.9,47.5,29.87,ENE,67,3.0,4.0,85,0.00,,,0.00,WeatherCatV1.10B1784,2013-05-22 16:50:00,
2013-05-22 09:55:00,52.0,47.6,29.87,ENE,69,3.0,5.0,85,0.00,,,0.00,WeatherCatV1.10B1784,2013-05-22 16:55:00,
2013-05-22 10:00:00,51.8,47.4,29.87,ENE,72,3.0,5.0,85,0.00,,,0.00,WeatherCatV1.10B1784,2013-05-22 17:00:00,
2013-05-22 10:05:00,52.0,47.6,29.87,East,85,2.0,3.0,85,0.00,,,0.00,WeatherCatV1.10B1784,2013-05-22 17:05:00,
2013-05-22 10:10:00,52.6,48.2,29.86,ENE,66,2.0,5.0,85,0.00,,,0.00,WeatherCatV1.10B1784,2013-05-22 17:10:00,
2013-05-22 10:15:00,52.6,47.9,29.87,ENE,59,3.0,7.0,84,0.00,,,0.00,WeatherCatV1.10B1784,2013-05-22 17:15:00,
2013-05-22 10:20:00,52.9,48.2,29.87,NE,51,4.0,5.0,84,0.00,,,0.00,WeatherCatV1.10B1784,2013-05-22 17:20:00,
2013-05-22 10:25:00,53.6,49.2,29.87,NE,50,3.0,6.0,85,0.00,,,0.00,WeatherCatV1.10B1784,2013-05-22 17:25:00,
2013-05-22 10:30:00,53.6,48.2,29.87,ENE,62,4.0,6.0,82,0.00,,,0.00,WeatherCatV1.10B1784,2013-05-22 17:30:00,
2013-05-22 10:35:00,53.7,48.3,29.86,NE,53,4.0,5.0,82,0.00,,,0.00,WeatherCatV1.10B1784,2013-05-22 17:35:00,
2013-05-22 10:40:00,53.7,48.0,29.87,ENE,59,4.0,6.0,81,0.00,,,0.00,WeatherCatV1.10B1784,2013-05-22 17:40:00,
2013-05-22 10:45:00,53.9,48.2,29.87,ENE,64,3.0,5.0,81,0.00,,,0.00,WeatherCatV1.10B1784,2013-05-22 17:45:00,
2013-05-22 10:50:00,54.5,48.1,29.87,ENE,71,3.0,5.0,79,0.00,,,0.00,WeatherCatV1.10B1784,2013-05-22 17:50:00,
2013-05-22 10:55:00,54.5,48.1,29.87,ENE,64,3.0,6.0,79,0.00,,,0.00,WeatherCatV1.10B1784,2013-05-22 17:55:00,
2013-05-22 11:05:00,54.2,48.2,29.87,ENE,58,3.0,4.0,80,0.00,,,0.00,WeatherCatV1.10B1784,2013-05-22 18:05:00,
2013-05-22 11:10:00,54.6,48.2,29.87,ENE,59,5.0,6.0,79,0.00,,,0.01,WeatherCatV1.10B1784,2013-05-22 18:10:00,
2013-05-22 11:15:00,54.4,48.0,29.87,NNE,26,4.0,5.0,79,0.00,,,0.01,WeatherCatV1.10B1784,2013-05-22 18:15:00,
2013-05-22 11:20:00,54.3,48.3,29.87,ENE,57,2.0,5.0,80,0.00,,,0.01,WeatherCatV1.10B1784,2013-05-22 18:20:00,
2013-05-22 11:25:00,54.3,47.9,29.87,NNE,29,5.0,6.0,79,0.00,,,0.01,WeatherCatV1.10B1784,2013-05-22 18:25:00,
2013-05-22 11:30:00,54.3,47.9,29.87,NE,46,5.0,5.0,79,0.00,,,0.01,WeatherCatV1.10B1784,2013-05-22 18:30:00,
2013-05-22 11:35:00,54.6,48.6,29.86,ENE,77,1.0,6.0,80,0.00,,,0.01,WeatherCatV1.10B1784,2013-05-22 18:35:00,
2013-05-22 11:40:00,54.3,47.9,29.86,NNE,24,3.0,6.0,79,0.00,,,0.01,WeatherCatV1.10B1784,2013-05-22 18:40:00,
2013-05-22 11:45:00,54.7,49.0,29.86,ENE,72,2.0,3.0,81,0.00,,,0.01,WeatherCatV1.10B1784,2013-05-22 18:45:00,
2013-05-22 11:50:00,55.0,48.6,29.86,ENE,59,4.0,4.0,79,0.00,,,0.01,WeatherCatV1.10B1784,2013-05-22 18:50:00,
2013-05-22 11:55:00,55.0,48.3,29.86,ENE,77,3.0,4.0,78,0.00,,,0.01,WeatherCatV1.10B1784,2013-05-22 18:55:00,
2013-05-22 12:00:00,55.1,48.7,29.86,NE,41,3.0,5.0,79,0.00,,,0.01,WeatherCatV1.10B1784,2013-05-22 19:00:00,
2013-05-22 12:05:00,54.9,48.5,29.86,NE,36,4.0,4.0,79,0.00,,,0.01,WeatherCatV1.10B1784,2013-05-22 19:05:00,
2013-05-22 12:10:00,54.7,48.7,29.86,East,82,2.0,3.0,80,0.00,,,0.01,WeatherCatV1.10B1784,2013-05-22 19:10:00,
2013-05-22 12:15:00,54.7,48.3,29.86,NNE,25,2.0,3.0,79,0.00,,,0.01,WeatherCatV1.10B1784,2013-05-22 19:15:00,
2013-05-22 12:20:00,54.9,48.2,29.86,ENE,61,3.0,4.0,78,0.00,,,0.01,WeatherCatV1.10B1784,2013-05-22 19:20:00,
2013-05-22 12:25:00,55.0,48.3,29.86,NE,36,2.0,4.0,78,0.00,,,0.01,WeatherCatV1.10B1784,2013-05-22 19:25:00,
2013-05-22 12:30:00,55.3,48.6,29.86,NNE,25,3.0,4.0,78,0.00,,,0.01,WeatherCatV1.10B1784,2013-05-22 19:30:00,
2013-05-22 12:35:00,55.4,48.7,29.87,NE,37,5.0,5.0,78,0.00,,,0.01,WeatherCatV1.10B1784,2013-05-22 19:35:00,
2013-05-22 12:40:00,55.2,48.1,29.87,NE,47,2.0,5.0,77,0.00,,,0.01,WeatherCatV1.10B1784,2013-05-22 19:40:00,
2013-05-22 12:45:00,55.2,48.5,29.87,NE,34,2.0,4.0,78,0.00,,,0.01,WeatherCatV1.10B1784,2013-05-22 19:45:00,
2013-05-22 12:50:00,55.5,48.8,29.88,NNE,19,2.0,4.0,78,0.00,,,0.01,WeatherCatV1.10B1784,2013-05-22 19:50:00,
2013-05-22 12:55:00,55.5,48.1,29.88,ENE,61,3.0,4.0,76,0.00,,,0.01,WeatherCatV1.10B1784,2013-05-22 19:55:00,
2013-05-22 13:00:00,55.4,48.3,29.88,NE,46,2.0,5.0,77,0.00,,,0.01,WeatherCatV1.10B1784,2013-05-22 20:00:00,
2013-05-22 13:05:00,55.5,48.4,29.88,NNE,32,2.0,3.0,77,0.00,,,0.01,WeatherCatV1.10B1784,2013-05-22 20:05:00,
2013-05-22 13:10:00,55.3,47.9,29.88,NNE,31,1.0,5.0,76,0.00,,,0.01,WeatherCatV1.10B1784,2013-05-22 20:10:00,
2013-05-22 13:15:00,55.8,48.3,29.88,NNE,20,1.0,3.0,76,0.00,,,0.01,WeatherCatV1.10B1784,2013-05-22 20:15:00,
2013-05-22 13:20:00,56.1,47.9,29.88,North,355,2.0,4.0,74,0.00,,,0.01,WeatherCatV1.10B1784,2013-05-22 20:20:00,
2013-05-22 13:25:00,56.0,48.5,29.88,NNE,30,2.0,3.0,76,0.00,,,0.01,WeatherCatV1.10B1784,2013-05-22 20:25:00,
2013-05-22 13:30:00,56.4,48.6,29.88,NNE,32,1.0,4.0,75,0.00,,,0.01,WeatherCatV1.10B1784,2013-05-22 20:30:00,
2013-05-22 13:35:00,56.0,47.8,29.88,NNE,26,2.0,3.0,74,0.00,,,0.01,WeatherCatV1.10B1784,2013-05-22 20:35:00,
2013-05-22 13:40:00,56.1,48.3,29.88,NE,43,2.0,3.0,75,0.00,,,0.01,WeatherCatV1.10B1784,2013-05-22 20:40:00,
2013-05-22 13:45:00,56.0,48.2,29.88,NE,50,2.0,3.0,75,0.00,,,0.01,WeatherCatV1.10B1784,2013-05-22 20:45:00,
2013-05-22 13:50:00,55.9,47.4,29.88,NNW,338,1.0,2.0,73,0.00,,,0.01,WeatherCatV1.10B1784,2013-05-22 20:50:00,
2013-05-22 13:55:00,55.9,47.0,29.87,NNE,12,2.0,2.0,72,0.00,,,0.01,WeatherCatV1.10B1784,2013-05-22 20:55:00,
2013-05-22 14:00:00,55.8,47.6,29.87,NNE,13,2.0,3.0,74,0.00,,,0.01,WeatherCatV1.10B1784,2013-05-22 21:00:00,
2013-05-22 14:05:00,56.0,47.5,29.87,NNE,29,2.0,3.0,73,0.00,,,0.01,WeatherCatV1.10B1784,2013-05-22 21:05:00,
2013-05-22 14:10:00,56.3,48.1,29.87,NE,37,1.0,3.0,74,0.00,,,0.01,WeatherCatV1.10B1784,2013-05-22 21:10:00,
2013-05-22 14:15:00,56.7,48.1,29.87,NNE,19,1.0,3.0,73,0.00,,,0.01,WeatherCatV1.10B1784,2013-05-22 21:15:00,
2013-05-22 14:20:00,56.7,47.4,29.87,NNW,332,2.0,3.0,71,0.00,,,0.01,WeatherCatV1.10B1784,2013-05-22 21:20:00,
2013-05-22 14:25:00,56.6,47.3,29.87,North,11,3.0,3.0,71,0.00,,,0.01,WeatherCatV1.10B1784,2013-05-22 21:25:00,
2013-05-22 14:30:00,56.9,47.6,29.87,North,8,2.0,4.0,71,0.00,,,0.01,WeatherCatV1.10B1784,2013-05-22 21:30:00,
2013-05-22 14:35:00,57.2,48.3,29.87,NNE,29,2.0,3.0,72,0.00,,,0.01,WeatherCatV1.10B1784,2013-05-22 21:35:00,
2013-05-22 14:40:00,57.5,48.2,29.87,North,358,4.0,4.0,71,0.00,,,0.01,WeatherCatV1.10B1784,2013-05-22 21:40:00,
2013-05-22 14:45:00,57.4,47.7,29.88,NE,36,3.0,4.0,70,0.00,,,0.01,WeatherCatV1.10B1784,2013-05-22 21:45:00,
2013-05-22 14:50:00,57.4,47.7,29.88,NNE,26,2.0,5.0,70,0.00,,,0.01,WeatherCatV1.10B1784,2013-05-22 21:50:00,
2013-05-22 14:55:00,57.4,47.7,29.88,ENE,63,2.0,5.0,70,0.00,,,0.01,WeatherCatV1.10B1784,2013-05-22 21:55:00,
2013-05-22 15:00:00,57.4,47.7,29.88,NE,44,2.0,2.0,70,0.00,,,0.01,WeatherCatV1.10B1784,2013-05-22 22:00:00,
2013-05-22 15:05:00,57.6,47.9,29.89,NNE,15,2.0,2.0,70,0.00,,,0.01,WeatherCatV1.10B1784,2013-05-22 22:05:00,
2013-05-22 15:10:00,57.5,47.0,29.88,NNE,22,3.0,3.0,68,0.00,,,0.01,WeatherCatV1.10B1784,2013-05-22 22:10:00,
2013-05-22 15:15:00,57.0,46.2,29.88,North,0,1.0,4.0,67,0.00,,,0.01,WeatherCatV1.10B1784,2013-05-22 22:15:00,
2013-05-22 15:20:00,57.2,47.1,29.88,NNE,26,3.0,3.0,69,0.00,,,0.01,WeatherCatV1.10B1784,2013-05-22 22:20:00,
2013-05-22 15:25:00,57.1,46.6,29.88,NNW,333,0.0,1.0,68,0.00,,,0.01,WeatherCatV1.10B1784,2013-05-22 22:25:00,
2013-05-22 15:30:00,57.0,46.5,29.88,North,5,2.0,3.0,68,0.00,,,0.01,WeatherCatV1.10B1784,2013-05-22 22:30:00,
2013-05-22 15:35:00,57.0,47.3,29.88,NE,37,1.0,2.0,70,0.00,,,0.01,WeatherCatV1.10B1784,2013-05-22 22:35:00,
2013-05-22 15:40:00,57.1,47.0,29.88,NE,43,1.0,2.0,69,0.00,,,0.01,WeatherCatV1.10B1784,2013-05-22 22:40:00,
2013-05-22 15:45:00,57.2,47.1,29.88,North,4,1.0,3.0,69,0.00,,,0.01,WeatherCatV1.10B1784,2013-05-22 22:45:00,
2013-05-22 15:50:00,57.3,47.2,29.88,NNE,33,2.0,2.0,69,0.00,,,0.01,WeatherCatV1.10B1784,2013-05-22 22:50:00,
2013-05-22 15:55:00,57.2,47.1,29.88,NE,41,2.0,2.0,69,0.00,,,0.01,WeatherCatV1.10B1784,2013-05-22 22:55:00,
2013-05-22 16:00:00,57.2,46.7,29.88,NNE,19,1.0,2.0,68,0.00,,,0.01,WeatherCatV1.10B1784,2013-05-22 23:00:00,
2013-05-22 16:05:00,57.3,47.2,29.88,NNE,25,1.0,2.0,69,0.00,,,0.01,WeatherCatV1.10B1784,2013-05-22 23:05:00,
2013-05-22 16:10:00,57.2,46.3,29.88,NE,47,1.0,2.0,67,0.00,,,0.01,WeatherCatV1.10B1784,2013-05-22 23:10:00,
2013-05-22 16:15:00,57.2,46.7,29.88,NE,46,1.0,2.0,68,0.00,,,0.01,WeatherCatV1.10B1784,2013-05-22 23:15:00,
2013-05-22 16:20:00,57.2,46.3,29.88,NE,50,0.0,2.0,67,0.00,,,0.01,WeatherCatV1.10B1784,2013-05-22 23:20:00,
2013-05-22 16:25:00,57.6,46.7,29.88,NNE,27,1.0,1.0,67,0.00,,,0.01,WeatherCatV1.10B1784,2013-05-22 23:25:00,
2013-05-22 16:30:00,58.0,46.7,29.88,North,1,1.0,2.0,66,0.00,,,0.01,WeatherCatV1.10B1784,2013-05-22 23:30:00,
2013-05-22 16:35:00,57.9,46.6,29.88,NNE,29,0.0,2.0,66,0.00,,,0.01,WeatherCatV1.10B1784,2013-05-22 23:35:00,
2013-05-22 16:40:00,58.1,47.2,29.88,NNE,25,2.0,3.0,67,0.00,,,0.01,WeatherCatV1.10B1784,2013-05-22 23:40:00,
2013-05-22 16:45:00,58.0,47.5,29.88,North,4,3.0,3.0,68,0.00,,,0.01,WeatherCatV1.10B1784,2013-05-22 23:45:00,
2013-05-22 16:50:00,58.1,47.6,29.88,North,358,1.0,1.0,68,0.00,,,0.01,WeatherCatV1.10B1784,2013-05-22 23:50:00,
2013-05-22 16:55:00,58.2,47.3,29.88,NW,326,0.0,2.0,67,0.00,,,0.01,WeatherCatV1.10B1784,2013-05-22 23:55:00,
2013-05-22 17:00:00,58.1,47.6,29.88,WNW,298,1.0,1.0,68,0.00,,,0.01,WeatherCatV1.10B1784,2013-05-23 00:00:00,
2013-05-22 17:05:00,58.1,47.2,29.88,NW,307,1.0,1.0,67,0.00,,,0.01,WeatherCatV1.10B1784,2013-05-23 00:05:00,
2013-05-22 17:10:00,57.9,47.4,29.88,NNE,20,1.0,2.0,68,0.00,,,0.01,WeatherCatV1.10B1784,2013-05-23 00:10:00,
2013-05-22 17:15:00,57.6,47.1,29.88,NNE,18,2.0,2.0,68,0.00,,,0.01,WeatherCatV1.10B1784,2013-05-23 00:15:00,
2013-05-22 17:20:00,57.5,47.4,29.87,North,1,1.0,2.0,69,0.00,,,0.01,WeatherCatV1.10B1784,2013-05-23 00:20:00,
2013-05-22 17:25:00,57.2,46.7,29.87,NW,326,2.0,2.0,68,0.00,,,0.01,WeatherCatV1.10B1784,2013-05-23 00:25:00,
2013-05-22 17:30:00,57.3,47.6,29.87,North,5,1.0,2.0,70,0.00,,,0.01,WeatherCatV1.10B1784,2013-05-23 00:30:00,
2013-05-22 17:35:00,57.4,47.3,29.87,NW,326,1.0,2.0,69,0.00,,,0.01,WeatherCatV1.10B1784,2013-05-23 00:35:00,
2013-05-22 17:40:00,57.6,48.3,29.87,NW,304,0.0,1.0,71,0.00,,,0.01,WeatherCatV1.10B1784,2013-05-23 00:40:00,
2013-05-22 17:45:00,57.6,47.5,29.87,NW,322,2.0,3.0,69,0.00,,,0.01,WeatherCatV1.10B1784,2013-05-23 00:45:00,
2013-05-22 17:50:00,57.6,47.9,29.87,NW,311,1.0,4.0,70,0.00,,,0.01,WeatherCatV1.10B1784,2013-05-23 00:50:00,
2013-05-22 17:55:00,57.5,47.8,29.87,NW,311,1.0,3.0,70,0.00,,,0.01,WeatherCatV1.10B1784,2013-05-23 00:55:00,
2013-05-22 18:00:00,57.6,48.3,29.87,NW,305,2.0,2.0,71,0.00,,,0.01,WeatherCatV1.10B1784,2013-05-23 01:00:00,
2013-05-22 18:05:00,57.4,48.1,29.87,NW,305,0.0,3.0,71,0.00,,,0.01,WeatherCatV1.10B1784,2013-05-23 01:05:00,
2013-05-22 18:10:00,57.4,47.7,29.87,WNW,300,2.0,3.0,70,0.00,,,0.01,WeatherCatV1.10B1784,2013-05-23 01:10:00,
2013-05-22 18:15:00,57.2,48.3,29.87,WNW,302,1.0,2.0,72,0.00,,,0.01,WeatherCatV1.10B1784,2013-05-23 01:15:00,
2013-05-22 18:20:00,57.1,47.8,29.87,NW,326,1.0,4.0,71,0.00,,,0.01,WeatherCatV1.10B1784,2013-05-23 01:20:00,
2013-05-22 18:25:00,57.1,48.2,29.87,NW,316,1.0,3.0,72,0.00,,,0.01,WeatherCatV1.10B1784,2013-05-23 01:25:00,
2013-05-22 18:30:00,57.1,47.8,29.87,NNW,328,1.0,3.0,71,0.00,,,0.01,WeatherCatV1.10B1784,2013-05-23 01:30:00,
2013-05-22 18:35:00,57.3,49.1,29.88,NNW,332,0.0,2.0,74,0.00,,,0.01,WeatherCatV1.10B1784,2013-05-23 01:35:00,
2013-05-22 18:40:00,57.3,49.1,29.88,WNW,300,1.0,2.0,74,0.00,,,0.01,WeatherCatV1.10B1784,2013-05-23 01:40:00,
2013-05-22 18:45:00,57.5,48.9,29.88,NW,306,1.0,2.0,73,0.00,,,0.01,WeatherCatV1.10B1784,2013-05-23 01:45:00,
2013-05-22 18:50:00,57.5,48.9,29.88,NW,307,0.0,2.0,73,0.00,,,0.01,WeatherCatV1.10B1784,2013-05-23 01:50:00,
2013-05-22 18:54:00,57.5,48.9,29.89,West,277,0.0,1.0,73,0.00,,,0.01,WeatherCatV1.10B1784,2013-05-23 01:54:00,
2013-05-22 18:59:00,57.6,49.0,29.89,North,8,0.0,1.0,73,0.00,,,0.01,WeatherCatV1.10B1784,2013-05-23 01:59:00,
2013-05-22 19:04:00,57.5,49.3,29.89,NW,318,0.0,1.0,74,0.00,,,0.01,WeatherCatV1.10B1784,2013-05-23 02:04:00,
2013-05-22 19:09:00,57.4,49.2,29.89,NW,319,1.0,2.0,74,0.00,,,0.01,WeatherCatV1.10B1784,2013-05-23 02:09:00,
2013-05-22 19:14:00,57.3,49.4,29.89,NW,305,0.0,1.0,75,0.00,,,0.01,WeatherCatV1.10B1784,2013-05-23 02:14:00,
2013-05-22 19:19:00,57.4,49.5,29.88,NW,316,1.0,2.0,75,0.00,,,0.01,WeatherCatV1.10B1784,2013-05-23 02:19:00,
2013-05-22 19:24:00,57.2,49.3,29.88,WNW,302,1.0,2.0,75,0.00,,,0.01,WeatherCatV1.10B1784,2013-05-23 02:24:00,
2013-05-22 19:29:00,57.1,49.6,29.89,WNW,300,0.0,2.0,76,0.00,,,0.01,WeatherCatV1.10B1784,2013-05-23 02:29:00,
2013-05-22 19:34:00,57.1,49.6,29.88,WNW,291,1.0,1.0,76,0.00,,,0.01,WeatherCatV1.10B1784,2013-05-23 02:34:00,
2013-05-22 19:39:00,57.1,49.2,29.89,West,267,1.0,2.0,75,0.00,,,0.01,WeatherCatV1.10B1784,2013-05-23 02:39:00,
2013-05-22 19:44:00,57.2,49.3,29.89,North,352,2.0,2.0,75,0.00,,,0.01,WeatherCatV1.10B1784,2013-05-23 02:44:00,
2013-05-22 19:49:00,57.2,49.0,29.88,West,277,2.0,3.0,74,0.00,,,0.01,WeatherCatV1.10B1784,2013-05-23 02:49:00,
2013-05-22 19:54:00,57.0,48.8,29.88,WNW,282,1.0,2.0,74,0.00,,,0.01,WeatherCatV1.10B1784,2013-05-23 02:54:00,
2013-05-22 19:59:00,56.9,48.7,29.88,West,260,0.0,1.0,74,0.00,,,0.01,WeatherCatV1.10B1784,2013-05-23 02:59:00,
2013-05-22 20:04:00,56.8,48.6,29.88,West,260,0.0,1.0,74,0.00,,,0.01,WeatherCatV1.10B1784,2013-05-23 03:04:00,
2013-05-22 20:09:00,56.7,48.9,29.88,WNW,283,1.0,2.0,75,0.00,,,0.01,WeatherCatV1.10B1784,2013-05-23 03:09:00,
2013-05-22 20:14:00,56.6,48.4,29.88,NW,326,0.0,2.0,74,0.00,,,0.01,WeatherCatV1.10B1784,2013-05-23 03:14:00,
2013-05-22 20:19:00,56.4,47.5,29.89,West,274,1.0,2.0,72,0.00,,,0.01,WeatherCatV1.10B1784,2013-05-23 03:19:00,
2013-05-22 20:24:00,56.4,46.7,29.88,WSW,255,0.0,1.0,70,0.00,,,0.01,WeatherCatV1.10B1784,2013-05-23 03:24:00,
2013-05-22 20:29:00,56.4,46.0,29.88,West,260,1.0,3.0,68,0.00,,,0.01,WeatherCatV1.10B1784,2013-05-23 03:29:00,
2013-05-22 20:34:00,56.5,45.7,29.88,WSW,249,2.0,2.0,67,0.00,,,0.01,WeatherCatV1.10B1784,2013-05-23 03:34:00,
2013-05-22 20:39:00,56.5,46.1,29.88,WSW,243,0.0,1.0,68,0.00,,,0.01,WeatherCatV1.10B1784,2013-05-23 03:39:00,
2013-05-22 20:44:00,56.5,46.5,29.89,WSW,248,1.0,1.0,69,0.00,,,0.01,WeatherCatV1.10B1784,2013-05-23 03:44:00,
2013-05-22 20:49:00,56.3,46.6,29.89,SW,236,1.0,1.0,70,0.00,,,0.01,WeatherCatV1.10B1784,2013-05-23 03:49:00,
2013-05-22 20:54:00,56.2,46.5,29.89,West,264,2.0,2.0,70,0.00,,,0.01,WeatherCatV1.10B1784,2013-05-23 03:54:00,
2013-05-22 20:59:00,56.2,46.2,29.89,West,260,1.0,3.0,69,0.00,,,0.01,WeatherCatV1.10B1784,2013-05-23 03:59:00,
2013-05-22 21:01:00,56.2,46.2,29.88,WNW,283,1.0,2.0,69,0.00,,,0.01,WeatherCatV1.10B1784,2013-05-23 04:01:00,
2013-05-22 21:06:00,56.1,46.1,29.88,West,279,1.0,1.0,69,0.00,,,0.01,WeatherCatV1.10B1784,2013-05-23 04:06:00,
2013-05-22 21:11:00,56.0,46.4,29.88,West,278,2.0,2.0,70,0.00,,,0.01,WeatherCatV1.10B1784,2013-05-23 04:11:00,
2013-05-22 21:16:00,55.9,46.3,29.88,West,264,2.0,2.0,70,0.00,,,0.01,WeatherCatV1.10B1784,2013-05-23 04:16:00,
2013-05-22 21:21:00,55.9,45.9,29.87,WSW,252,2.0,4.0,69,0.00,,,0.01,WeatherCatV1.10B1784,2013-05-23 04:21:00,
2013-05-22 21:26:00,56.0,46.0,29.87,West,275,1.0,1.0,69,0.00,,,0.01,WeatherCatV1.10B1784,2013-05-23 04:26:00,
2013-05-22 21:31:00,55.9,45.9,29.87,West,268,1.0,1.0,69,0.00,,,0.01,WeatherCatV1.10B1784,2013-05-23 04:31:00,
2013-05-22 21:36:00,55.9,45.9,29.87,West,267,1.0,3.0,69,0.00,,,0.01,WeatherCatV1.10B1784,2013-05-23 04:36:00,
2013-05-22 21:41:00,55.9,45.5,29.88,West,263,0.0,1.0,68,0.00,,,0.01,WeatherCatV1.10B1784,2013-05-23 04:41:00,
2013-05-22 21:46:00,55.9,45.9,29.89,WSW,238,1.0,3.0,69,0.00,,,0.01,WeatherCatV1.10B1784,2013-05-23 04:46:00,
2013-05-22 21:51:00,55.8,45.8,29.88,WSW,252,1.0,3.0,69,0.00,,,0.01,WeatherCatV1.10B1784,2013-05-23 04:51:00,
2013-05-22 21:56:00,55.7,45.3,29.88,SW,226,4.0,4.0,68,0.00,,,0.01,WeatherCatV1.10B1784,2013-05-23 04:56:00,
2013-05-22 22:01:00,55.8,44.6,29.89,WSW,252,4.0,5.0,66,0.00,,,0.01,WeatherCatV1.10B1784,2013-05-23 05:01:00,
2013-05-22 22:06:00,55.9,44.7,29.88,SW,218,3.0,4.0,66,0.00,,,0.01,WeatherCatV1.10B1784,2013-05-23 05:06:00,
2013-05-22 22:11:00,55.8,45.0,29.88,WNW,294,2.0,3.0,67,0.00,,,0.01,WeatherCatV1.10B1784,2013-05-23 05:11:00,
2013-05-22 22:16:00,55.7,44.9,29.88,West,271,0.0,1.0,67,0.00,,,0.01,WeatherCatV1.10B1784,2013-05-23 05:16:00,
2013-05-22 22:21:00,55.7,45.3,29.88,SW,228,2.0,4.0,68,0.00,,,0.01,WeatherCatV1.10B1784,2013-05-23 05:21:00,
2013-05-22 22:26:00,55.6,45.2,29.88,WSW,246,2.0,3.0,68,0.00,,,0.01,WeatherCatV1.10B1784,2013-05-23 05:26:00,
2013-05-22 22:31:00,55.5,45.5,29.88,WSW,249,1.0,3.0,69,0.00,,,0.01,WeatherCatV1.10B1784,2013-05-23 05:31:00,
2013-05-22 22:36:00,55.5,45.1,29.87,WSW,239,1.0,2.0,68,0.00,,,0.01,WeatherCatV1.10B1784,2013-05-23 05:36:00,
2013-05-22 22:41:00,55.7,44.9,29.88,SW,226,0.0,3.0,67,0.00,,,0.01,WeatherCatV1.10B1784,2013-05-23 05:41:00,
2013-05-22 22:46:00,55.7,45.3,29.88,SSW,193,1.0,2.0,68,0.00,,,0.01,WeatherCatV1.10B1784,2013-05-23 05:46:00,
2013-05-22 22:51:00,55.3,45.7,29.88,SE,146,2.0,3.0,70,0.00,,,0.01,WeatherCatV1.10B1784,2013-05-23 05:51:00,
2013-05-22 22:56:00,54.8,46.3,29.88,SSE,162,2.0,4.0,73,0.00,,,0.01,WeatherCatV1.10B1784,2013-05-23 05:56:00,
2013-05-22 23:01:00,54.5,46.7,29.88,South,175,1.0,2.0,75,0.00,,,0.01,WeatherCatV1.10B1784,2013-05-23 06:01:00,
2013-05-22 23:06:00,54.1,46.7,29.88,SE,145,4.0,5.0,76,0.00,,,0.01,WeatherCatV1.10B1784,2013-05-23 06:06:00,
2013-05-22 23:11:00,53.8,46.8,29.88,SE,137,0.0,1.0,77,0.00,,,0.01,WeatherCatV1.10B1784,2013-05-23 06:11:00,
2013-05-22 23:16:00,53.7,47.0,29.88,SSE,152,0.0,1.0,78,0.00,,,0.01,WeatherCatV1.10B1784,2013-05-23 06:16:00,
2013-05-22 23:21:00,53.7,47.3,29.88,SSW,198,3.0,4.0,79,0.00,,,0.01,WeatherCatV1.10B1784,2013-05-23 06:21:00,
2013-05-22 23:26:00,53.7,47.7,29.89,SE,146,4.0,5.0,80,0.00,,,0.01,WeatherCatV1.10B1784,2013-05-23 06:26:00,
2013-05-22 23:31:00,53.5,47.8,29.88,SSE,150,6.0,7.0,81,0.00,,,0.01,WeatherCatV1.10B1784,2013-05-23 06:31:00,
2013-05-22 23:36:00,53.2,47.8,29.88,SSW,200,1.0,3.0,82,0.00,,,0.01,WeatherCatV1.10B1784,2013-05-23 06:36:00,
2013-05-22 23:41:00,53.0,48.0,29.89,East,98,0.0,7.0,83,0.00,,,0.01,WeatherCatV1.10B1784,2013-05-23 06:41:00,
2013-05-22 23:46:00,52.8,47.8,29.88,West,276,1.0,6.0,83,0.00,,,0.01,WeatherCatV1.10B1784,2013-05-23 06:46:00,
2013-05-22 23:51:00,52.7,48.0,29.88,SSW,211,1.0,7.0,84,0.00,,,0.01,WeatherCatV1.10B1784,2013-05-23 06:51:00,
2013-05-22 23:56:00,52.5,47.8,29.88,SSE,167,1.0,5.0,84,0.00,,,0.01,WeatherCatV1.10B1784,2013-05-23 06:56:00,